Simultaneous Nadir Overpasses (SNOs) Predictions

Prediction of SNOs between AQUA and NPP Satellite Orbit:

Table of predicted SNOs for the next 14.0 days since TLE Epoch: 1/19/2018
Index Date (AQUA) Time (AQUA) Lat,Lon (AQUA) SZA (AQUA ) Date (NPP) Time (NPP) Lat,Lon (NPP) SZA (NPP ) Distance(km) Time Diff (sec)
1 01/22/2018 06:21:45 -76.42, 145.07 63.50 01/22/2018 06:21:27 -76.42, 145.05 63.49 0.40 18
2 01/22/2018 07:10:53 77.27, -44.22 115.50 01/22/2018 07:11:52 77.26, -44.25 115.46 0.78 59
3 01/24/2018 21:49:06 75.58, 90.72 116.86 01/24/2018 21:47:53 75.58, 90.67 116.94 1.54 73
4 01/24/2018 22:38:11 -76.67, -98.21 64.37 01/24/2018 22:38:15 -76.66, -98.26 64.37 1.22 4
5 01/27/2018 14:05:30 75.93,-152.38 115.85 01/27/2018 14:04:39 75.92,-152.44 115.91 1.65 51
6 01/27/2018 14:54:37 -76.90, 18.51 65.28 01/27/2018 14:55:03 -76.90, 18.46 65.29 1.52 26
7 01/30/2018 06:21:52 76.31, -35.30 114.75 01/30/2018 06:21:23 76.30, -35.34 114.78 1.23 29
8 01/30/2018 07:11:01 -77.18, 135.42 66.28 01/30/2018 07:11:49 -77.17, 135.38 66.31 1.28 48
9 02/01/2018 22:38:15 76.68, 81.82 113.61 02/01/2018 22:38:08 76.67, 81.82 113.61 0.30 7




NCC Satellite Simultaneous Nadir Overpasses (SNOs) Prediction Service
